Location: Hiram
(41.3130°N, 81.1440°W)
Time: 06:21:31
(UTC-04:00)

Iridium 62 - Visible Passes

Search period start: 28 April 2015 00:00
Search period end: 08 May 2015 00:00
Orbit: 776 x 779 km, 86.4° (Epoch: 27 April)

Date Brightness Start Highest point End Pass type
(mag) Time Alt. Az. Time Alt. Az. Time Alt. Az.
28 Apr 8.4 01:36:46 10° WNW 01:36:46 10° WNW 01:37:13 10° WNW visible
28 Apr 6.6 23:22:38 41° NE 23:22:38 41° NE 23:26:28 10° NNE visible
29 Apr 7.9 01:03:04 19° WNW 01:03:04 19° WNW 01:06:10 10° NNW visible
29 Apr 7.1 22:48:56 26° ENE 22:48:56 26° ENE 22:52:25 10° NNE visible
30 Apr 7.2 00:29:24 33° WNW 00:29:24 33° WNW 00:33:25 10° NNW visible
30 Apr 7.7 22:15:14 15° ENE 22:15:14 15° ENE 22:17:44 10° NE visible
30 Apr 6.3 23:55:41 58° NW 23:55:41 58° NW 00:00:13 10° N visible
01 May 5.9 23:21:58 66° NE 23:21:58 66° NE 23:26:42 10° N visible
02 May 8.2 01:02:25 13° WNW 01:02:55 13° WNW 01:05:18 10° NW visible
02 May 6.5 22:48:14 38° E 22:48:14 38° E 22:52:53 10° NNE visible
03 May 7.5 00:28:41 24° W 00:28:58 24° WNW 00:33:08 10° NNW visible
03 May 7.2 22:14:29 21° E 22:14:44 21° E 22:18:39 10° NNE visible
03 May 6.6 23:54:56 43° W 23:55:11 44° W 00:00:09 10° N visible
04 May 7.8 21:40:44 11° E 21:41:29 11° ENE 21:43:14 10° ENE visible
04 May 5.7 23:21:10 74° SW 23:21:35 81° W 23:26:49 10° N visible
05 May 5.9 22:47:23 51° ESE 22:48:05 55° E 22:53:11 10° NNE visible
06 May 8.0 00:27:50 16° W 00:29:17 17° WNW 00:32:34 10° NW visible
06 May 6.7 22:13:36 27° ESE 22:14:41 30° E 22:19:14 10° NNE visible
06 May 7.2 23:54:02 27° WSW 23:55:24 30° W 23:59:58 10° NNW visible
07 May 7.4 21:39:47 14° ESE 21:41:23 17° E 21:44:43 10° NE visible
07 May 6.3 23:20:13 41° SW 23:21:42 56° W 23:26:49 10° N visible
